Grayling, MI

11:12 AM EDT on April 25, 2018 (GMT -0400)
Grayling

Weather History for KGOV - March, 2013

Change the Weather History Date:

Monday, March 11, 2013

  Actual Average (KHTL) Record (KHTL)
Temperature  
Mean Temperature 40 °F -  
Max Temperature 46 °F 36 °F 63 °F (1973)
Min Temperature 33 °F 16 °F -16 °F (1926)
Degree Days  
Heating Degree Days 26    
Moisture  
Dew Point 40 °F    
Average Humidity 98    
Maximum Humidity 100    
Minimum Humidity 61    
Precipitation  
Precipitation 0.00 in - - ()
Sea Level Pressure  
Sea Level Pressure 29.55 in    
Wind  
Wind Speed 6 mph (SSE)    
Max Wind Speed 18 mph    
Max Gust Speed 32 mph    
Visibility 4 miles    
Events Fog , Rain , Snow    
Averages and records for this station are not official NWS values.
T = Trace of Precipitation, MM = Missing Value Source: NWS Daily Summary

Daily Weather History Graph

Daily Weather History Graph

Search for Another Location

Airport or City:

Astronomy

Mar. 11, 2013 Rise Set
Actual Time 7:58 AM EDT 7:40 PM EDT
Civil Twilight 7:29 AM EDT 8:09 PM EDT
Nautical Twilight 6:55 AM EDT 8:43 PM EDT
Astronomical Twilight 6:21 AM EDT 9:17 PM EDT
Moon 7:30 AM EDT (3/11) 7:53 PM EDT (3/11)
Length of Visible Light 12h 40m
Length of Day
11h 42m
Waning Crescent, 0% of the Moon is Illuminated
Mar 11
Waning Crescent
Mar 11
New
Mar 19
First Quarter
Mar 27
Full
Apr 3
Last Quarter

Hourly Weather History & Observations

Time (EDT) Temp. Windchill Dew Point Humidity Pressure Visibility Wind Dir Wind Speed Gust Speed Precip Events Conditions
12:00 AM 39.2 °F 35.9 °F 39.2 °F 100% 29.79 in 7.0 mi ESE 4.6 mph - N/A Rain Rain
12:19 AM 37.4 °F 32.1 °F 37.4 °F 100% 29.78 in 5.0 mi East 6.9 mph - N/A Rain Rain
12:39 AM 37.4 °F 32.1 °F 37.4 °F 100% 29.77 in 5.0 mi East 6.9 mph - N/A Rain Rain
12:59 AM 37.4 °F 31.4 °F 37.4 °F 100% 29.74 in 5.0 mi East 8.1 mph - N/A   Overcast
1:19 AM 37.4 °F 31.4 °F 37.4 °F 100% 29.74 in 7.0 mi ESE 8.1 mph - N/A   Overcast
1:39 AM 37.4 °F 31.4 °F 37.4 °F 100% 29.73 in 7.0 mi East 8.1 mph - N/A Rain Light Rain
1:59 AM 37.4 °F 30.8 °F 37.4 °F 100% 29.72 in 5.0 mi East 9.2 mph - N/A   Overcast
2:19 AM 37.4 °F 32.1 °F 37.4 °F 100% 29.71 in 2.5 mi East 6.9 mph - N/A Rain Light Rain
2:59 AM 37.4 °F 32.1 °F 37.4 °F 100% 29.68 in 3.0 mi East 6.9 mph - N/A Rain Rain
3:19 AM 37.4 °F 32.1 °F - N/A% - 3.0 mi ESE 6.9 mph - N/A Rain Light Rain
3:39 AM - - - N/A% - 1.2 mi ESE 5.8 mph - N/A   Mostly Cloudy
3:59 AM 37.4 °F 34.9 °F 37.4 °F 100% 29.66 in 2.0 mi East 3.5 mph - N/A   Overcast
4:39 AM 37.4 °F 34.9 °F 37.4 °F 100% - 0.5 mi East 3.5 mph - N/A Fog Fog
4:59 AM 37.4 °F 32.8 °F 37.4 °F 100% 29.62 in 0.8 mi ENE 5.8 mph - N/A   Light Drizzle
5:23 AM 37.4 °F 34.9 °F 37.4 °F 100% 29.62 in 0.8 mi East 3.5 mph - N/A   Light Drizzle
5:44 AM 37.4 °F - 37.4 °F 100% 29.61 in 0.5 mi Calm Calm - N/A Fog Fog
5:59 AM 35.6 °F 32.8 °F 35.6 °F 100% 29.61 in 0.5 mi NE 3.5 mph - N/A Fog Fog
6:39 AM 37.4 °F - 37.4 °F 100% 29.60 in 0.5 mi Calm Calm - N/A Fog Fog
6:59 AM 35.6 °F - 35.6 °F 100% 29.60 in 0.5 mi Calm Calm - N/A Fog Fog
7:20 AM 37.4 °F - 37.4 °F 100% 29.59 in 0.5 mi Calm Calm - N/A Fog Fog
7:39 AM 35.6 °F 31.7 °F 35.6 °F 100% 29.58 in 0.5 mi SE 4.6 mph - N/A Fog Fog
8:10 AM 41.0 °F 39.0 °F 41.0 °F 100% 29.59 in 3.0 mi South 3.5 mph - N/A   Overcast
8:20 AM 41.0 °F 38.0 °F 41.0 °F 100% 29.58 in 3.0 mi South 4.6 mph - N/A   Overcast
8:40 AM 41.0 °F 38.0 °F 41.0 °F 100% 29.58 in 3.0 mi SSE 4.6 mph - N/A   Overcast
9:00 AM 41.0 °F 36.4 °F 41.0 °F 100% 29.60 in 4.0 mi South 6.9 mph - N/A   Overcast
9:18 AM 41.0 °F 37.1 °F 41.0 °F 100% 29.59 in 2.0 mi South 5.8 mph - N/A   Overcast
9:38 AM 41.0 °F 37.1 °F 41.0 °F 100% 29.60 in 1.2 mi South 5.8 mph - N/A   Drizzle
9:59 AM 42.8 °F 39.3 °F 42.8 °F 100% 29.58 in 1.0 mi South 5.8 mph - N/A   Overcast
10:19 AM 42.8 °F 38.6 °F 42.8 °F 100% 29.60 in 0.5 mi South 6.9 mph - N/A Fog Fog
10:42 AM 42.8 °F 37.5 °F 42.8 °F 100% 29.60 in 0.8 mi South 9.2 mph - N/A   Overcast
11:02 AM 42.8 °F 40.1 °F 42.8 °F 100% 29.58 in 0.2 mi South 4.6 mph - N/A Fog Fog
11:18 AM 42.8 °F 40.1 °F 42.8 °F 100% 29.57 in 0.2 mi SSW 4.6 mph - N/A Fog Fog
11:37 AM 42.8 °F 39.3 °F 42.8 °F 100% 29.58 in 1.0 mi South 5.8 mph - N/A   Overcast
11:58 AM 44.6 °F 42.2 °F 44.6 °F 100% 29.57 in 4.0 mi South 4.6 mph - N/A   Overcast
12:18 PM 44.6 °F 41.4 °F 32.0 °F 61% - 7.0 mi South 5.8 mph - N/A   Overcast
12:37 PM 44.6 °F 41.4 °F 44.6 °F 100% 29.56 in 7.0 mi South 5.8 mph - N/A   Overcast
12:58 PM 46.4 °F 45.2 °F 46.4 °F 100% - 10.0 mi SSW 3.5 mph - N/A   Overcast
1:18 PM 46.4 °F 41.5 °F 44.6 °F 93% 29.55 in 10.0 mi SW 10.4 mph - N/A   Overcast
1:40 PM 46.4 °F 42.9 °F 44.6 °F 93% 29.55 in 10.0 mi SW 6.9 mph - N/A   Overcast
2:00 PM 46.4 °F 45.2 °F 44.6 °F 93% 29.54 in 10.0 mi SSW 3.5 mph - N/A   Overcast
2:23 PM 46.4 °F - 42.8 °F 87% 29.52 in 10.0 mi Calm Calm - N/A   Overcast
2:39 PM 46.4 °F 45.2 °F 44.6 °F 93% 29.51 in 10.0 mi SW 3.5 mph - N/A Rain Light Rain
2:58 PM 46.4 °F 44.3 °F 42.8 °F 87% 29.50 in 10.0 mi SSW 4.6 mph - N/A   Overcast
3:19 PM 42.8 °F 41.1 °F 42.8 °F 100% 29.50 in 3.0 mi SE 3.5 mph - N/A   Overcast
3:40 PM 44.6 °F 43.1 °F 44.6 °F 100% 29.47 in 5.0 mi East 3.5 mph - N/A   Overcast
3:59 PM 42.8 °F 41.1 °F 42.8 °F 100% 29.45 in 3.0 mi ESE 3.5 mph - N/A   Overcast
4:31 PM 41.0 °F - 41.0 °F 100% 29.44 in 0.2 mi Calm Calm - N/A Fog Fog
4:37 PM 41.0 °F - 41.0 °F 100% 29.44 in 0.2 mi Calm Calm - N/A Fog Fog
4:57 PM 42.8 °F - 42.8 °F 100% 29.42 in 2.5 mi Calm Calm - N/A   Overcast
5:18 PM 42.8 °F 40.1 °F 42.8 °F 100% 29.42 in 2.5 mi East 4.6 mph - N/A   Overcast
5:38 PM 42.8 °F 40.1 °F 42.8 °F 100% 29.42 in 3.0 mi ESE 4.6 mph - N/A   Overcast
5:58 PM 41.0 °F 37.1 °F 41.0 °F 100% 29.42 in 2.5 mi SSE 5.8 mph - N/A Rain Rain
6:20 PM 41.0 °F 38.0 °F 41.0 °F 100% 29.42 in 0.5 mi ESE 4.6 mph - N/A Rain Rain
6:41 PM 41.0 °F 39.0 °F 41.0 °F 100% 29.41 in 0.2 mi SE 3.5 mph - N/A Rain Heavy Rain
7:00 PM 41.0 °F 38.0 °F 41.0 °F 100% 29.41 in 0.2 mi SE 4.6 mph - N/A Rain Rain
7:43 PM 41.0 °F 38.0 °F 41.0 °F 100% 29.40 in 0.5 mi SSE 4.6 mph - N/A Rain Light Rain
8:02 PM 41.0 °F 35.8 °F - N/A% - 1.5 mi South 8.1 mph - N/A Rain Heavy Rain
8:19 PM 41.0 °F 33.9 °F 41.0 °F 100% 29.42 in 5.0 mi SSW 12.7 mph 24.2 mph N/A Rain Rain
8:39 PM 37.4 °F 27.5 °F 37.4 °F 100% 29.43 in 5.0 mi West 18.4 mph 32.2 mph N/A Rain Rain
8:59 PM 35.6 °F 27.5 °F 35.6 °F 100% 29.43 in 5.0 mi West 11.5 mph 19.6 mph N/A Rain Light Rain
9:20 PM 35.6 °F 29.9 °F 32.0 °F 87% - 10.0 mi West 6.9 mph - N/A Rain Light Rain
9:38 PM 35.6 °F 29.9 °F 35.6 °F 100% - 10.0 mi West 6.9 mph - N/A Rain Light Rain
9:58 PM 33.8 °F 28.6 °F 33.8 °F 100% 29.45 in 10.0 mi SW 5.8 mph - N/A Rain Light Rain
10:18 PM 33.8 °F 27.7 °F 33.8 °F 100% 29.46 in 10.0 mi SW 6.9 mph - N/A   Overcast
10:38 PM 33.8 °F 27.0 °F 33.8 °F 100% 29.47 in 10.0 mi SW 8.1 mph - N/A Snow Light Snow
10:58 PM 33.8 °F 26.4 °F 33.8 °F 100% 29.48 in 4.0 mi WSW 9.2 mph - N/A Snow Light Snow
11:17 PM 33.8 °F 27.0 °F 33.8 °F 100% 29.49 in 1.5 mi WSW 8.1 mph - N/A Snow Light Snow
11:57 PM 33.8 °F 26.4 °F 33.8 °F 100% 29.50 in 1.0 mi WSW 9.2 mph - N/A Snow Snow